Tracking 19795 objects as of 19-Jul-2019
HD Live streaming from Space Station
objects crossing your sky now

RAINCUBE

Track RAINCUBE now!
10-day predictions


NORAD ID: 43548
Int'l Code: 1998-067NW
Perigee: 386.2 km
Apogee: 392.2 km
Inclination: 51.6 °
Period: 92.2 minutes
Semi major axis: 6760 km
RCS: Unknown
Launch date: November 20, 1998
Source: United States (US)
Launch site: TYURATAM MISSILE AND SPACE COMPLEX (TTMTR)
aabbcc
Your satellite tracking list
Your tracking list is empty




NASA's NSSDC Master Catalog

Two Line Element Set (TLE):
1 43548U 98067NW  19200.18673571  .00007139  00000-0  86259-4 0  9998
2 43548  51.6354 188.9564 0004484 253.2300 106.8202 15.61941122 57841
Source of the keplerian elements: AFSPC